Stations météo

réclame
Mon MeteoGroup
Aeroport de Lannion, France (7118): Température de l'air & dewpoint: 10.06.2019 03:00:00 - 16.06.2019 03:00:00 (CEST)Aeroport de Lannion, France (7118): Vitesse du vent & gusts: 10.06.2019 03:00:00 - 16.06.2019 03:00:00 (CEST)Aeroport de Lannion, France (7118): Direction du vent: 10.06.2019 03:00:00 - 16.06.2019 03:00:00 (CEST)Aeroport de Lannion, France (7118): reduced air pressure: 10.06.2019 03:00:00 - 16.06.2019 03:00:00 (CEST)Aeroport de Lannion, France (7118): visibility: 10.06.2019 03:00:00 - 16.06.2019 03:00:00 (CEST)Aeroport de Lannion, France (7118): Quantités de précipitations: 10.06.2019 03:00:00 - 16.06.2019 03:00:00 (CEST)
Date & Time tt [°C] td [°C] ff [km/h] ff [knt] fx [km/h] fx [knt] dd ppp [hPa] vv [km] rr [mm]
16.06.2019 03:00:00 13,0 12,1 11 6 22 12 SSW 1017,1 45 0,0
16.06.2019 02:00:00 12,9 12,0 13 7 21 12 S 1017,2 40 0,0
16.06.2019 01:00:00 12,9 12,0 10 6 18 10 SSW 1017,0 20 0,0
16.06.2019 00:00:00 12,6 11,7 11 6 23 13 SSW 1016,9 41 0,0
15.06.2019 23:00:00 13,1 12,2 15 8 30 16 SSW 1016,5 52 0,0
15.06.2019 22:00:00 13,8 12,9 16 9 30 16 SW 1015,8 50 0,4
15.06.2019 21:00:00 14,2 13,2 11 6 19 11 SSW 1015,4 18 0,2
15.06.2019 20:00:00 13,8 12,9 11 6 26 14 SW 1015,3 4,0 1,2
15.06.2019 19:00:00 14,4 12,6 9 5 16 8 W 1015,0 13 0,2
15.06.2019 18:00:00 14,5 12,7 13 7 29 16 W 1014,9 14 0,4
15.06.2019 17:00:00 17,2 13,7 18 10 33 18 WNW 1014,4 20 0,0
15.06.2019 16:00:00 17,1 15,6 18 10 30 16 WSW 1013,8 19 1,2
15.06.2019 15:00:00 14,6 12,8 13 7 38 20 WNW 1013,4 59 0,2
15.06.2019 14:00:00 15,7 14,1 16 9 34 19 SSW 1013,5 13 0,0
15.06.2019 13:00:00 15,0 13,9 11 6 29 16 SSW 1013,4 53 1,8
15.06.2019 12:00:00 15,2 12,5 20 11 33 18 SW 1013,3 39 0,0
15.06.2019 11:00:00 13,6 12,2 19 10 37 20 SSW 1013,3 10 0,0
15.06.2019 10:00:00 13,6 11,3 19 10 34 18 S 1013,1 20 0,0
15.06.2019 09:00:00 12,8 10,3 18 10 32 18 S 1012,8 54 0,0
15.06.2019 08:00:00 12,4 10,6 17 9 34 19 S 1012,4 49 0,0
15.06.2019 07:00:00 12,1 10,5 11 6 28 15 S 1012,2 20 0,2
15.06.2019 06:00:00 11,9 10,5 13 7 27 15 S 1012,4 19 0,2
15.06.2019 05:00:00 11,4 10,1 9 5 17 9 S 1012,5 60 0,0
15.06.2019 04:00:00 11,6 10,2 11 6 22 12 S 1012,6 59 0,0
15.06.2019 03:00:00 12,2 10,4 12 6 21 11 S 1012,6 60 0,0
15.06.2019 02:00:00 12,8 10,7 13 7 25 14 S 1012,9 60 0,0
15.06.2019 01:00:00 12,8 10,3 11 6 19 10 S 1013,1 60 0,0
15.06.2019 00:00:00 13,1 10,1 9 5 17 9 S 1013,0 60 0,0
14.06.2019 23:00:00 13,4 10,0 10 5 21 12 S 1012,9 60 0,0
14.06.2019 22:00:00 13,6 9,8 11 6 29 16 SSW 1012,3 60 0,0
14.06.2019 21:00:00 14,3 10,5 14 7 35 19 SW 1012,4 60 0,0
14.06.2019 20:00:00 15,4 9,5 16 8 32 18 SW 1012,3 19 0,0
14.06.2019 19:00:00 16,9 10,3 14 7 25 13 SW 1011,9 60 0,0
14.06.2019 18:00:00 16,2 10,3 17 9 29 16 SSW 1012,0 59 0,0
14.06.2019 17:00:00 15,4 10,6 13 7 34 18 SSW 1012,1 19 0,0
14.06.2019 16:00:00 15,1 11,3 10 6 19 10 W 1012,1 19 0,0
14.06.2019 15:00:00 15,5 11,9 13 7 35 19 WNW 1012,1 19 0,0
14.06.2019 14:00:00 15,5 9,6 23 12 40 22 SSW 1012,1 20 0,0
14.06.2019 13:00:00 16,7 9,4 21 11 41 22 SW 1011,8 43 0,0
14.06.2019 12:00:00 16,6 10,9 24 13 41 22 SSW 1011,9 20 0,0
14.06.2019 11:00:00 14,8 10,2 22 12 41 22 SW 1011,9 20 0,0
14.06.2019 10:00:00 14,3 11,4 18 10 27 15 SW 1011,5 43 0,0
14.06.2019 09:00:00 12,6 10,8 15 8 29 16 SSW 1011,5 10 0,0
14.06.2019 08:00:00 13,0 10,9 15 8 26 14 S 1011,1 60 0,0
14.06.2019 07:00:00 11,8 10,4 13 7 22 12 S 1011,0 60 0,0
14.06.2019 06:00:00 11,4 10,0 13 7 27 15 SSW 1010,6 60 0,0
14.06.2019 05:00:00 11,5 10,1 13 7 22 12 SSW 1010,5 60 0,0
14.06.2019 04:00:00 11,6 9,8 16 9 28 15 SSW 1010,6 60 0,0
14.06.2019 03:00:00 12,2 10,1 16 9 30 16 S 1011,1 60 0,0
14.06.2019 02:00:00 11,7 9,8 13 7 21 12 S 1011,2 60 0,0
14.06.2019 01:00:00 11,6 9,7 12 6 22 12 SSW 1011,3 60 0,0
14.06.2019 00:00:00 12,5 9,9 14 7 26 14 SSW 1011,4 60 0,0
13.06.2019 23:00:00 13,0 10,0 13 7 26 14 SW 1011,2 60 0,0
13.06.2019 22:00:00 13,5 9,5 16 8 31 17 SW 1010,6 60 0,0
13.06.2019 21:00:00 13,8 11,3 10 6 19 11 W 1010,5 60 0,0
13.06.2019 20:00:00 14,1 11,3 13 7 26 14 W 1010,2 60 0,0
13.06.2019 19:00:00 14,7 11,1 18 10 28 15 W 1009,8 57 0,0
13.06.2019 18:00:00 14,6 10,6 21 12 32 18 W 1009,8 55 0,0
13.06.2019 17:00:00 15,6 10,6 24 13 34 18 W 1009,6 44 0,0
13.06.2019 16:00:00 15,7 10,0 16 9 38 20 WSW 1009,6 60 0,0
13.06.2019 15:00:00 16,3 10,6 21 11 36 19 WSW 1009,4 20 0,0
13.06.2019 14:00:00 14,2 10,2 16 9 34 18 W 1009,4 55 0,0
13.06.2019 13:00:00 14,7 9,7 19 11 31 17 SSW 1009,3 60 0,0
13.06.2019 12:00:00 14,0 10,2 19 11 32 17 SW 1009,3 58 0,0
13.06.2019 11:00:00 13,4 9,8 22 12 35 19 WSW 1009,2 20 0,0
13.06.2019 10:00:00 12,5 9,9 16 9 27 15 SW 1009,2 52 0,0
13.06.2019 09:00:00 11,5 9,7 15 8 22 12 SSW 1009,0 20 0,0
13.06.2019 08:00:00 10,1 9,6 13 7 19 10 S 1008,8 11 0,0
13.06.2019 07:00:00 8,9 8,4 9 5 13 7 S 1008,7 6 0,0
13.06.2019 06:00:00 8,9 8,3 7 4 11 6 S 1008,5 6 0,0
13.06.2019 05:00:00 9,1 8,3 7 4 12 6 SW 1008,9 8 0,0
13.06.2019 04:00:00 10,2 9,4 3 2 7 4 S 1009,2 19 0,0
13.06.2019 03:00:00 10,2 9,6 5 3 7 4 WSW 1009,8 20 0,0
13.06.2019 02:00:00 9,8 9,0 3 1 7 4 SW 1010,1 46 0,0
13.06.2019 01:00:00 9,0 8,2 6 4 7 4 W 1010,3 12 0,0
13.06.2019 00:00:00 9,1 8,2 2 1 5 3 WNW 1010,4 17 0,0
12.06.2019 23:00:00 9,6 8,2 3 2 7 4 W 1010,4 20 0,0
12.06.2019 22:00:00 11,2 8,6 6 4 16 9 WNW 1009,9 45 0,0
12.06.2019 21:00:00 13,6 9,4 7 4 16 8 N 1009,8 59 0,0
12.06.2019 20:00:00 12,8 9,4 8 4 18 10 NNE 1009,9 60 0,0
12.06.2019 19:00:00 13,2 9,1 10 5 19 10 N 1009,8 60 0,0
12.06.2019 18:00:00 13,8 8,8 13 7 21 12 N 1010,0 60 0,0
12.06.2019 17:00:00 14,1 9,1 13 7 23 13 N 1009,8 60 0,0
12.06.2019 16:00:00 13,8 8,6 15 8 24 13 N 1009,8 54 0,0
12.06.2019 15:00:00 14,2 10,2 16 9 24 13 N 1009,7 60 0,0
12.06.2019 14:00:00 13,7 9,7 13 7 23 12 N 1009,8 50 0,0
12.06.2019 13:00:00 12,7 9,7 15 8 26 14 N 1009,9 58 0,2
12.06.2019 12:00:00 12,5 9,7 16 8 23 13 N 1009,9 20 0,0
12.06.2019 11:00:00 12,5 9,5 16 8 28 15 N 1009,8 59 0,0
12.06.2019 10:00:00 12,5 10,2 14 8 29 16 N 1009,9 60 0,0
12.06.2019 09:00:00 12,2 10,1 13 7 29 15 N 1009,9 46 0,0
12.06.2019 08:00:00 11,8 9,9 15 8 28 15 N 1010,0 45 -
12.06.2019 07:00:00 11,7 10,4 13 7 27 14 N 1009,7 20 0,0
12.06.2019 06:00:00 11,8 10,4 14 7 28 15 N 1010,0 20 0,0
12.06.2019 05:00:00 11,8 10,5 14 8 31 17 N 1010,0 19 0,0
12.06.2019 04:00:00 12,0 10,6 16 9 32 17 N 1010,4 20 0,0
12.06.2019 03:00:00 11,9 10,5 20 11 36 19 N 1010,9 46 0,0
12.06.2019 02:00:00 12,1 10,5 19 10 39 21 N 1011,2 37 0,0
12.06.2019 01:00:00 12,4 10,6 19 10 36 20 N 1011,8 52 0,0
12.06.2019 00:00:00 12,3 10,4 21 12 34 18 N 1011,9 60 0,0
11.06.2019 23:00:00 12,4 10,1 20 11 40 21 N 1011,8 60 0,0
11.06.2019 22:00:00 12,7 10,8 21 12 36 19 N 1011,6 60 0,0
11.06.2019 21:00:00 13,2 10,7 18 10 42 23 NNE 1011,4 59 0,0
11.06.2019 20:00:00 13,8 10,4 22 12 38 20 NNE 1010,6 60 0,0
11.06.2019 19:00:00 13,2 9,8 18 10 44 24 NNE 1010,4 59 0,0
11.06.2019 18:00:00 13,5 10,5 18 10 37 20 NNE 1010,1 50 0,0
11.06.2019 17:00:00 12,8 11,2 17 9 29 16 NNE 1009,5 60 0,4
11.06.2019 16:00:00 12,0 10,9 4 2 8 4 NE 1009,4 32 0,8
11.06.2019 15:00:00 10,6 10,0 5 3 18 10 NNE 1009,6 6 6,7
11.06.2019 14:00:00 11,6 11,0 11 6 34 18 N 1009,3 5 1,6
11.06.2019 13:00:00 11,5 11,0 15 8 34 19 NNW 1009,6 18 0,0
11.06.2019 12:00:00 10,6 10,1 22 12 45 25 NNW 1009,8 3,5 0,6
11.06.2019 11:00:00 10,2 9,6 23 12 45 24 NNW 1010,1 2,5 1,9
11.06.2019 10:00:00 9,9 9,1 19 10 46 25 NW 1010,6 2,3 0,8
11.06.2019 09:00:00 10,0 9,1 17 9 36 19 NNW 1011,1 12 0,8
11.06.2019 08:00:00 9,7 8,8 20 11 36 19 NNW 1011,6 10 0,4
11.06.2019 07:00:00 9,7 8,8 16 9 32 17 NNW 1011,9 12 1,6
11.06.2019 06:00:00 9,8 8,6 16 8 28 15 NNW 1012,2 10 1,2
11.06.2019 05:00:00 10,0 8,6 12 6 22 12 NNW 1012,7 60 0,0
11.06.2019 04:00:00 9,7 8,5 11 6 48 26 NNW 1013,4 13 0,8
11.06.2019 03:00:00 10,8 9,4 15 8 24 13 WNW 1013,8 16 0,2
11.06.2019 02:00:00 10,9 8,3 11 6 24 13 NW 1014,4 60 0,0
11.06.2019 01:00:00 11,2 9,1 9 5 17 9 NW 1014,9 60 0,0
11.06.2019 00:00:00 10,7 8,8 7 4 16 9 NW 1015,5 60 0,0
10.06.2019 23:00:00 11,3 9,0 10 6 17 9 NW 1015,8 60 0,0
10.06.2019 22:00:00 11,6 9,0 8 5 26 14 NW 1015,4 60 0,0
10.06.2019 21:00:00 13,0 8,7 15 8 26 14 NNW 1015,3 55 0,0
10.06.2019 20:00:00 12,5 9,0 14 8 24 13 NW 1015,3 60 0,0
10.06.2019 19:00:00 14,1 8,7 15 8 23 13 WNW 1015,5 60 0,0
10.06.2019 18:00:00 13,8 8,2 13 7 28 15 WNW 1015,5 20 0,0
10.06.2019 17:00:00 13,7 9,1 15 8 27 15 NW 1015,6 58 0,0
10.06.2019 16:00:00 14,7 8,9 17 9 32 17 WNW 1015,8 60 0,0
10.06.2019 15:00:00 13,6 7,6 14 8 26 14 WNW 1016,2 20 0,0
10.06.2019 14:00:00 13,7 7,9 16 9 23 13 W 1016,5 59 0,0
10.06.2019 13:00:00 13,2 8,1 15 8 26 14 WNW 1016,8 56 0,0
10.06.2019 12:00:00 13,5 9,9 11 6 26 14 WNW 1017,2 58 0,0
10.06.2019 11:00:00 14,0 10,6 11 6 21 12 W 1017,1 60 0,0
10.06.2019 10:00:00 12,8 11,4 9 5 16 9 W 1017,5 20 0,0
10.06.2019 09:00:00 11,0 10,5 6 3 11 6 WSW 1017,7 17 0,0
10.06.2019 08:00:00 9,4 8,9 4 2 8 4 S 1017,8 6 0,0
10.06.2019 07:00:00 8,5 8,1 3 2 9 5 SSW 1018,0 8 0,0
10.06.2019 06:00:00 9,3 8,7 5 3 8 5 SSW 1018,1 14 0,2
10.06.2019 05:00:00 10,6 10,1 9 5 15 8 SW 1018,5 3,9 0,8
10.06.2019 04:00:00 10,5 9,9 7 4 9 5 SW 1019,1 7 0,0
10.06.2019 03:00:00 10,4 9,6 4 2 9 5 WSW 1019,3 8 0,6

tt = Température de l'air
td = dewpoint
ff = Vitesse du vent
fx = gusts
dd = Direction du vent
ppp = reduced air pressure
vv = visibility
rr = Quantités de précipitations

stations d'obs. à proximité